GALAXY 19 (G-19)

Last updated on Sun Jun 21 2026 00:03:04 GMT+0000 (Coordinated Universal Time)

1 33376U 08045A 26171.37283038 -.00000144 00000+0 00000+0 0 9998 2 33376 0.0278 264.2718 0002625 191.2038 210.3278 1.00271248 64930
UTC large
Height (km)
Speed (km/s)
/
Latitude / Longitude
Inclination (degrees)
Orbital Period (minutes)
Azimuth
Elevation
Range (km)
Doppler Factor

Next 0 passes for location: London (51.5072 / 0.1276)

No passes found over London.
GALAXY 19 (G-19)